Bloomington, IN

2:16 PM EDT on July 22, 2017 (GMT -0400)
Monroe County

Weather History for KBMG - September, 2015

Change the Weather History Date:

Tuesday, September 8, 2015

  Actual Average Record
Temperature  
Mean Temperature 80 °F 69 °F  
Max Temperature 91 °F 81 °F 93 °F (2002)
Min Temperature 68 °F 56 °F 47 °F (2010)
Degree Days  
Heating Degree Days 0 1  
Month to date heating degree days 0 4  
Since 1 July heating degree days 3 11  
Cooling Degree Days 15 5  
Month to date cooling degree days 106 43  
Year to date cooling degree days 984 860  
Growing Degree Days 30 (Base 50)    
Moisture  
Dew Point 66 °F    
Average Humidity 66    
Maximum Humidity 90    
Minimum Humidity 41    
Precipitation  
Precipitation 0.00 in 0.12 in 2.64 in (2016)
Month to date precipitation 0.00 0.85  
Year to date precipitation 35.45 34.04  
Sea Level Pressure  
Sea Level Pressure 29.95 in    
Wind  
Wind Speed 5 mph (SW)    
Max Wind Speed 17 mph    
Max Gust Speed 24 mph    
Visibility 9 miles    
Events      
T = Trace of Precipitation, MM = Missing Value Source: NWS Daily Summary

Daily Weather History Graph

Daily Weather History Graph

Search for Another Location

Airport or City:

Trip Planner

Search our weather history database for the weather conditions in past years. The results will help you decide how hot, cold, wet, or windy it might be!

Date:

Astronomy

Sep. 08, 2015 Rise Set
Actual Time 7:21 AM EDT 8:06 PM EDT
Civil Twilight 6:54 AM EDT 8:33 PM EDT
Nautical Twilight 6:22 AM EDT 9:05 PM EDT
Astronomical Twilight 5:48 AM EDT 9:38 PM EDT
Moon 3:04 AM EDT (9/8) 5:23 PM EDT (9/8)
Length of Visible Light 13h 39m
Length of Day
12h 45m
Waning Crescent, 19% of the Moon is Illuminated
Sep 8
Waning Crescent
Sep 13
New
Sep 21
First Quarter
Sep 27
Full
Oct 4
Last Quarter

Hourly Weather History & Observations

Time (EDT) Temp. Heat Index Dew Point Humidity Pressure Visibility Wind Dir Wind Speed Gust Speed Precip Events Conditions
12:53 AM 70.0 °F - 66.9 °F 90% 30.01 in 7.0 mi Calm Calm - N/A   Clear
1:53 AM 70.0 °F - 66.9 °F 90% 30.02 in 6.0 mi Calm Calm - N/A   Mostly Cloudy
2:53 AM 69.1 °F - 66.9 °F 93% 30.01 in 7.0 mi Calm Calm - N/A   Clear
3:53 AM 69.1 °F - 66.0 °F 90% 30.01 in 6.0 mi Calm Calm - N/A   Scattered Clouds
4:53 AM 73.0 °F - 68.0 °F 84% 30.01 in 9.0 mi Calm Calm - N/A   Mostly Cloudy
5:53 AM 71.1 °F - 68.0 °F 90% 30.00 in 8.0 mi Calm Calm - N/A   Clear
6:53 AM 69.1 °F - 66.0 °F 90% 29.99 in 8.0 mi Calm Calm - N/A   Clear
7:53 AM 69.1 °F - 66.9 °F 93% 29.99 in 4.0 mi Calm Calm - N/A   Clear
8:53 AM 75.0 °F - 68.0 °F 79% 30.00 in 9.0 mi SSW 4.6 mph - N/A   Clear
9:53 AM 79.0 °F - 68.0 °F 69% 30.00 in 10.0 mi SW 5.8 mph - N/A   Clear
10:53 AM 82.9 °F 85.8 °F 68.0 °F 60% 29.99 in 10.0 mi SW 6.9 mph - N/A   Clear
11:53 AM 86.0 °F 89.4 °F 68.0 °F 55% 29.97 in 10.0 mi Variable 6.9 mph - N/A   Clear
12:53 PM 88.0 °F 89.6 °F 64.9 °F 46% 29.96 in 10.0 mi SW 11.5 mph 18.4 mph N/A   Clear
1:53 PM 87.1 °F 88.9 °F 64.9 °F 48% 29.94 in 10.0 mi SSW 11.5 mph 19.6 mph N/A   Partly Cloudy
2:53 PM 90.0 °F 91.3 °F 64.0 °F 42% 29.91 in 10.0 mi SSW 12.7 mph 19.6 mph N/A   Partly Cloudy
3:53 PM 91.0 °F 92.6 °F 64.0 °F 41% 29.88 in 10.0 mi SSW 12.7 mph 18.4 mph N/A   Partly Cloudy
4:53 PM 89.1 °F 90.3 °F 64.0 °F 43% 29.86 in 10.0 mi SSW 10.4 mph - N/A   Scattered Clouds
5:53 PM 88.0 °F 89.3 °F 64.0 °F 45% 29.86 in 10.0 mi WSW 11.5 mph - N/A   Partly Cloudy
6:53 PM 87.1 °F 88.3 °F 64.0 °F 46% 29.87 in 10.0 mi SW 5.8 mph - N/A   Clear
7:53 PM 81.0 °F 83.0 °F 66.0 °F 60% 29.88 in 10.0 mi SSW 4.6 mph - N/A   Clear
8:53 PM 77.0 °F - 64.9 °F 66% 29.91 in 10.0 mi Variable 4.6 mph - 0.00 in   Mostly Cloudy
9:53 PM 71.1 °F - 64.9 °F 81% 29.90 in 10.0 mi SSE 4.6 mph - N/A   Clear
10:53 PM 73.0 °F - 66.0 °F 79% 29.89 in 10.0 mi NNW 4.6 mph - N/A   Partly Cloudy
11:53 PM 71.1 °F - 66.0 °F 84% 29.90 in 10.0 mi Calm Calm - N/A   Clear